Weather History for Guthrie, OK

Change the Weather History Date:

Sunday, October 13, 2013

  Actual Average Record
Temperature  
Mean Temperature 64 °F -  
Max Temperature 71 °F 78 °F 93 °F (1954)
Min Temperature 57 °F 53 °F 32 °F (1948)
Degree Days  
Heating Degree Days 1    
Growing Degree Days 14 (Base 50)    
Moisture  
Dew Point 55 °F    
Average Humidity 73    
Maximum Humidity 84    
Minimum Humidity 63    
Precipitation  
Precipitation 0.00 in - - ()
Sea Level Pressure  
Sea Level Pressure 30.20 in    
Wind  
Wind Speed 4 mph (ENE)    
Max Wind Speed 10 mph    
Max Gust Speed -    
Visibility 8 miles    
Events      
Averages and records for this station are not official NWS values.
T = Trace of Precipitation, MM = Missing Value Source: NWS Daily Summary

Daily Weather History Graph

Daily Weather History Graph

Search for Another Location

Airport:

Trip Planner

Search our weather history database for the weather conditions in past years. The results will help you decide how hot, cold, wet, or windy it might be!

Date:

Astronomy

Oct. 13, 2013 Rise Set
Actual Time 7:34 AM CDT 6:56 PM CDT
Civil Twilight 7:09 AM CDT 7:21 PM CDT
Nautical Twilight 6:39 AM CDT 7:51 PM CDT
Astronomical Twilight 6:09 AM CDT 8:21 PM CDT
Moon 3:39 PM CDT (10/13) 1:56 AM CDT (10/13)
Length of Visible Light 12h 12m
Length of Day
11h 21m
Waxing Gibbous, 69% of the Moon is Illuminated
Oct 13
Waxing Gibbous
Oct 18
Full
Oct 26
Last Quarter
Nov 3
New
Nov 9
First Quarter

Hourly Weather History & Observations

Time (CDT) Temp. Dew Point Humidity Pressure Visibility Wind Dir Wind Speed Gust Speed Precip Events Conditions
12:53 AM 57.0 °F 48.9 °F 74% 30.17 in 10.0 mi NNE 3.5 mph - N/A   Scattered Clouds
1:20 AM 57.2 °F 48.2 °F 72% 30.18 in 10.0 mi Calm Calm - N/A   Mostly Cloudy
1:44 AM 57.2 °F 48.2 °F 72% 30.17 in 10.0 mi NNE 4.6 mph - N/A   Mostly Cloudy
1:53 AM 57.0 °F 48.9 °F 74% 30.17 in 10.0 mi Variable 3.5 mph - N/A   Mostly Cloudy
2:53 AM 57.9 °F 50.0 °F 75% 30.18 in 10.0 mi North 4.6 mph - N/A   Overcast
3:53 AM 57.9 °F 50.0 °F 75% 30.18 in 10.0 mi Calm Calm - N/A   Scattered Clouds
4:53 AM 57.9 °F 50.0 °F 75% 30.19 in 10.0 mi Calm Calm - N/A   Mostly Cloudy
5:17 AM 57.2 °F 50.0 °F 77% 30.21 in 10.0 mi NNE 3.5 mph - N/A   Overcast
5:53 AM 59.0 °F 50.0 °F 72% 30.20 in 10.0 mi NE 3.5 mph - N/A   Overcast
6:53 AM 57.9 °F 48.9 °F 72% 30.21 in 10.0 mi NE 5.8 mph - N/A   Scattered Clouds
7:53 AM 57.9 °F 48.9 °F 72% 30.22 in 9.0 mi NE 3.5 mph - N/A   Mostly Cloudy
8:46 AM 60.8 °F 48.2 °F 63% 30.25 in 9.0 mi NE 6.9 mph - N/A   Mostly Cloudy
8:53 AM 61.0 °F 48.9 °F 64% 30.24 in 9.0 mi ENE 6.9 mph - N/A   Mostly Cloudy
9:53 AM 64.0 °F 51.1 °F 63% 30.26 in 10.0 mi East 5.8 mph - N/A   Overcast
10:53 AM 66.0 °F 54.0 °F 65% 30.26 in 8.0 mi East 8.1 mph - N/A   Overcast
11:53 AM 66.9 °F 55.9 °F 68% 30.27 in 7.0 mi ESE 8.1 mph - N/A   Overcast
12:53 PM 68.0 °F 57.0 °F 68% 30.26 in 7.0 mi East 8.1 mph - N/A   Overcast
1:53 PM 69.1 °F 57.9 °F 68% 30.22 in 8.0 mi NE 4.6 mph - N/A   Overcast
2:53 PM 71.1 °F 60.1 °F 68% 30.20 in 7.0 mi East 10.4 mph - N/A   Overcast
3:53 PM 70.0 °F 61.0 °F 73% 30.19 in 6.0 mi East 10.4 mph - N/A   Haze
4:53 PM 69.1 °F 62.1 °F 78% 30.17 in 5.0 mi East 9.2 mph - N/A   Haze
5:53 PM 69.1 °F 61.0 °F 75% 30.18 in 7.0 mi ESE 6.9 mph - N/A   Overcast
6:32 PM 69.8 °F 60.8 °F 73% 30.19 in 7.0 mi East 3.5 mph - N/A   Overcast
6:53 PM 69.1 °F 62.1 °F 78% 30.18 in 8.0 mi Calm Calm - N/A   Overcast
7:53 PM 68.0 °F 61.0 °F 78% 30.20 in 8.0 mi ENE 3.5 mph - N/A   Overcast
8:53 PM 68.0 °F 61.0 °F 78% 30.20 in 8.0 mi East 3.5 mph - N/A   Overcast
9:53 PM 68.0 °F 61.0 °F 78% 30.20 in 8.0 mi East 6.9 mph - N/A   Overcast
10:53 PM 68.0 °F 62.1 °F 81% 30.17 in 8.0 mi East 8.1 mph - N/A   Scattered Clouds
11:53 PM 68.0 °F 63.0 °F 84% 30.16 in 8.0 mi SE 6.9 mph - N/A   Mostly Cloudy